User: anonymous   Login
Location: Unspecified
(0.0000°N, 0.0000°E)
Time: 09:14:51
(UTC+00:00)
Language:

HJ-1B - Orbit

View from above orbital plane
View from above orbital plane
View from above satellite
View from above satellite

Ground track
Ground track

The orbit data is extracted from the following two-line orbital elements,

1 33321U 08041B   18018.76543878  .00000157  00000-0  29356-4 0  9993
2 33321  97.9155  85.9809 0036167  67.0422 293.4597 14.76968052504593
Epoch (UTC): 18 January 2018 18:22:13
Eccentricity: 0.0036167
inclination: 97.9155°
perigee height: 613 km
apogee height: 664 km
right ascension of ascending node: 85.9809°
argument of perigee: 67.0422°
revolutions per day: 14.76968052
mean anomaly at epoch: 293.4597°
orbit number at epoch: 50459

The dashed part of the orbit path shows where the satellite is in the earth's shadow,  

DLR